Wind_Speed
36 36 36 36 35 35 36 36 37 35 35 33 35 36 37 37 37 38 38 38 39 39 39 40 40 41 41 42 43 43 44 44 45 46 47 47 48 49 49 49 49 50 50 50
39 38 39 40 39 38 38 39 39 39 38 37 38 39 39 39 40 40 40 40 41 41 42 42 42 43 43 44 45 45 45 45 46 47 48 48 49 50 50 50 50 50 51 51
42 41 43 43 40 40 41 40 40 41 40 40 41 41 41 41 41 42 42 42 42 43 44 44 44 45 45 46 46 46 46 46 47 48 49 50 50 51 51 51 51 51 51 50
44 44 45 43 42 42 43 42 42 42 42 42 43 42 42 42 42 43 43 44 44 45 45 45 46 46 46 46 46 47 47 48 48 49 49 50 51 51 52 52 52 51 51 51
44 45 45 43 42 43 43 43 42 43 43 44 44 44 43 44 44 44 44 45 45 46 46 46 46 47 47 47 47 47 48 49 49 49 50 50 50 51 51 51 50 50 50 50
44 45 45 43 43 43 44 44 43 43 43 44 44 45 45 46 46 46 46 46 46 46 47 46 47 47 47 47 48 48 48 49 49 49 50 50 49 49 49 49 49 48 48 48
43 45 45 44 44 44 44 45 44 45 45 45 45 46 46 46 47 47 47 47 47 47 46 46 46 47 47 48 48 49 49 49 49 49 49 49 48 48 47 47 47 47 46 47
43 45 45 44 44 45 45 45 46 46 46 46 47 47 47 47 47 47 47 47 46 46 46 46 46 47 47 47 48 48 48 48 48 47 47 47 46 46 46 46 46 46 46 46
44 44 44 44 44 45 45 46 46 46 47 47 47 48 48 48 47 47 47 47 47 47 46 46 46 47 47 47 47 47 46 46 46 46 45 45 45 45 45 45 45 44 44 44
43 43 44 44 44 45 45 46 46 46 47 47 47 47 48 48 47 47 47 46 46 47 46 46 46 46 46 45 45 45 44 44 44 44 43 43 43 44 44 43 43 43 43 43
43 43 44 44 45 46 46 46 46 47 47 47 47 47 47 47 46 46 46 46 46 45 45 45 45 45 44 44 44 44 44 44 43 43 43 42 42 42 42 42 42 42 41 42
44 44 45 45 45 45 45 45 46 46 46 46 46 46 45 45 46 46 46 45 45 45 44 44 44 44 44 44 43 43 43 43 42 42 42 42 42 41 41 41 40 40 40 41
44 44 45 45 45 45 45 44 44 44 44 44 44 45 45 45 45 45 45 44 44 44 43 43 42 42 42 42 43 43 42 42 41 41 41 41 41 41 40 40 40 40 40 40
43 44 43 43 43 44 45 45 44 44 44 44 44 44 44 44 43 43 43 42 42 42 42 42 41 41 41 42 42 42 42 41 40 40 40 40 40 40 40 40 40 40 40 40
41 42 42 42 42 42 43 43 43 44 44 43 43 43 42 42 42 42 41 41 41 41 41 41 41 41 41 42 42 41 41 40 39 39 39 38 38 39 39 39 39 39 39 38
40 41 42 42 42 42 42 42 42 42 42 41 41 42 41 40 40 40 40 40 40 40 40 40 40 40 40 40 40 39 38 38 38 38 37 37 37 37 37 37 37 37 36 35
39 39 39 39 39 40 40 40 40 40 40 40 40 39 39 39 39 39 39 39 39 39 39 38 38 38 38 38 38 38 37 37 37 37 37 36 36 36 37 36 36 35 33 33
34 35 35 36 36 36 36 36 37 37 37 37 38 38 38 38 37 37 37 37 37 36 36 36 36 37 36 36 37 37 36 36 36 36 35 35 35 35 35 34 33 32 32 31
30 31 32 32 33 33 33 33 34 34 35 35 36 36 36 36 36 35 34 34 34 34 34 35 36 36 35 35 35 35 34 34 33 33 33 33 33 33 32 32 31 31 30 30
29 30 30 31 32 32 32 33 33 33 33 34 34 33 33 32 32 32 32 32 32 33 33 34 34 33 34 34 34 34 33 33 32 31 31 31 31 30 30 31 30 29 29 28
28 29 30 30 30 31 31 32 32 31 31 31 31 31 30 30 31 31 31 31 31 32 32 32 32 32 32 32 32 32 31 31 30 29 29 29 29 28 28 28 28 28 27 26
29 29 29 30 30 30 30 30 30 29 29 29 29 29 29 29 29 29 30 30 30 30 31 31 31 31 31 31 30 30 30 29 29 28 28 28 28 27 27 27 26 26 26 25
30 30 29 29 29 28 28 28 29 29 29 29 29 29 29 29 29 29 29 28 28 29 29 29 29 29 29 29 29 29 28 28 28 27 27 27 27 26 26 26 25 25 24 23
30 29 29 29 28 28 28 28 29 29 29 29 29 29 29 28 28 28 28 27 27 27 27 28 28 27 27 27 27 27 27 27 26 25 25 25 25 24 24 24 23 23 23 23
29 29 29 29 28 28 28 27 27 27 27 27 27 27 27 27 26 26 25 25 25 25 26 26 25 26 26 25 25 25 25 24 24 24 23 23 23 23 23 22 21 21 21 21
29 29 29 28 28 27 26 25 25 25 25 24 24 25 25 25 24 23 23 23 23 23 23 23 24 24 24 23 23 23 23 23 22 22 22 22 22 22 21 21 20 20 20 20
28 28 28 27 27 26 26 25 25 25 25 24 24 24 24 23 23 22 22 21 21 21 22 22 22 22 22 22 22 22 21 21 21 21 21 21 21 20 19 19 19 19 19 18
Wind_Direction
272 273 275 274 274 275 275 276 276 277 276 275 274 274 274 273 271 271 271 270 269 270 270 270 271 272 272 273 274 275 274 274 273 273 273 274 274 274 275 275 276 275 276 276
272 272 273 273 272 273 274 275 276 276 275 274 273 273 273 272 272 272 272 271 270 270 270 271 272 273 273 274 275 275 275 274 274 274 274 274 274 274 275 275 276 277 277 276
272 272 272 272 273 273 273 274 275 275 274 273 272 273 273 273 272 272 272 272 271 270 271 271 272 273 274 274 275 274 274 274 274 274 275 275 275 275 275 276 276 276 277 277
273 273 273 276 274 274 274 275 275 276 274 273 274 274 273 273 273 273 274 274 272 271 271 271 272 273 273 274 275 275 275 275 275 275 275 276 275 276 276 276 276 277 278 278
273 274 275 275 275 275 276 275 275 275 275 274 274 273 273 273 273 274 274 274 272 272 272 272 272 272 273 274 275 275 276 276 275 275 276 276 276 276 277 276 276 276 277 277
273 274 275 277 276 276 276 276 275 275 275 275 274 273 273 274 273 273 274 273 272 272 272 272 273 273 274 275 276 276 276 276 276 276 276 276 277 277 276 276 277 276 276 277
273 274 275 276 277 277 276 277 276 275 275 274 274 274 275 274 274 274 274 273 272 272 272 273 274 274 275 277 277 277 277 277 276 277 276 276 277 277 277 277 277 277 277 277
272 272 274 275 275 275 276 276 276 275 275 275 276 276 275 275 275 275 274 273 272 272 272 273 274 275 276 277 278 277 277 277 277 277 277 276 276 276 277 277 277 277 277 278
271 272 273 273 274 275 275 276 277 277 276 276 276 277 276 276 276 275 275 274 272 272 273 274 275 276 277 278 278 277 277 277 277 277 276 276 276 276 276 277 278 278 278 278
270 270 271 272 272 274 276 277 277 277 277 276 277 277 277 276 276 275 275 275 274 273 273 274 274 276 277 277 278 278 278 277 277 276 275 275 275 275 276 277 278 278 278 278
269 270 270 271 273 274 275 276 277 277 278 278 278 278 277 277 276 275 275 275 275 274 273 274 274 274 276 276 276 277 277 276 276 275 275 274 274 276 277 277 278 278 278 279
270 270 271 272 273 274 275 276 277 277 278 278 278 278 278 277 277 276 275 275 274 273 273 274 273 273 274 275 275 276 277 276 276 275 275 274 275 276 277 277 277 278 278 279
270 271 272 272 273 275 275 276 276 277 278 278 278 278 278 278 278 277 276 274 273 273 273 273 273 273 273 274 275 276 277 276 276 275 274 274 274 275 275 275 276 277 277 279
270 272 273 274 274 275 276 276 276 277 278 278 279 280 280 279 278 277 276 274 273 272 272 272 273 274 274 275 276 276 276 276 275 274 274 274 273 274 275 276 276 276 276 277
271 272 273 274 274 275 276 276 277 278 278 278 278 280 281 280 279 278 277 275 274 273 273 273 273 273 274 275 276 276 276 276 275 274 274 274 274 274 275 276 277 277 276 276
271 272 274 274 275 275 276 276 277 278 278 279 279 279 280 280 280 278 277 276 275 274 275 274 273 273 274 275 276 276 276 275 274 274 274 274 275 275 275 277 278 277 275 275
272 272 273 275 275 275 276 277 278 278 279 280 280 280 280 279 279 279 277 275 274 274 274 275 274 273 274 274 275 276 275 275 275 274 275 275 275 275 275 276 277 275 275 275
273 273 274 275 275 277 277 278 278 278 279 279 281 281 281 280 280 278 277 275 274 274 274 274 274 274 274 275 276 276 276 275 275 274 274 274 275 276 276 276 275 274 274 275
275 276 276 276 276 277 278 278 279 280 280 281 281 282 282 281 281 279 277 275 275 275 274 274 275 275 276 276 277 277 277 276 275 274 274 274 275 276 276 274 275 274 273 274
277 279 279 278 277 278 279 280 281 281 282 283 284 284 283 282 280 278 277 276 276 276 276 277 277 278 278 277 278 278 277 277 276 275 275 275 275 276 275 275 274 273 273 274
279 281 281 280 280 280 282 283 283 283 284 284 284 284 283 282 280 278 277 277 277 277 278 278 278 279 279 279 278 277 277 276 275 274 273 274 275 276 276 276 274 272 271 272
280 281 281 281 281 282 284 284 283 283 284 284 284 284 284 283 281 280 279 279 278 277 277 277 278 279 279 278 277 276 276 275 274 273 273 273 274 275 277 277 275 272 270 269
281 281 282 282 282 283 284 284 284 284 285 284 285 284 283 283 283 281 280 278 277 277 277 278 278 279 279 278 277 276 276 275 274 272 272 272 274 275 277 276 274 272 269 268
283 282 282 283 282 282 284 285 285 285 285 285 286 285 284 284 283 282 280 278 277 277 278 279 279 279 280 279 278 277 276 275 273 272 272 273 275 275 276 276 273 270 267 266
283 283 282 283 284 284 284 285 285 285 285 285 285 286 287 287 286 283 281 279 279 279 279 279 279 279 279 279 278 277 276 274 273 272 273 274 274 274 274 274 271 268 266 264
283 283 283 283 284 284 283 283 283 285 285 285 286 287 289 289 287 284 282 280 280 279 279 279 280 279 278 278 279 278 277 276 273 272 272 272 273 272 272 270 268 266 265 264
282 283 282 281 282 282 283 283 285 286 286 286 287 287 289 289 287 284 282 282 281 280 280 281 281 280 279 279 279 279 277 275 272 270 270 270 270 270 269 268 266 264 263 263
Height
5647 5647 5647 5647 5648 5647 5646 5646 5646 5647 5647 5648 5646 5645 5644 5644 5644 5644 5644 5644 5644 5644 5643 5643 5642 5642 5641 5641 5640 5639 5638 5638 5637 5636 5636 5635 5634 5633 5632 5631 5630 5629 5628 5627
5637 5637 5636 5637 5638 5637 5637 5637 5636 5636 5637 5638 5635 5634 5634 5634 5634 5634 5633 5633 5632 5632 5631 5631 5630 5630 5629 5628 5627 5626 5626 5625 5624 5623 5622 5622 5621 5619 5619 5618 5616 5615 5614 5613
5625 5625 5624 5626 5630 5628 5627 5627 5626 5625 5627 5625 5624 5624 5624 5623 5623 5622 5622 5621 5620 5619 5619 5618 5618 5617 5616 5615 5614 5613 5612 5611 5610 5610 5609 5608 5607 5606 5605 5604 5602 5601 5600 5599
5612 5613 5612 5619 5616 5616 5615 5615 5614 5613 5613 5613 5612 5612 5611 5610 5610 5609 5609 5608 5607 5606 5606 5605 5604 5604 5603 5602 5601 5600 5599 5598 5596 5595 5595 5594 5592 5591 5590 5589 5588 5587 5585 5584
5600 5599 5600 5605 5604 5603 5602 5603 5603 5601 5600 5600 5599 5599 5599 5598 5597 5596 5595 5595 5594 5593 5592 5591 5591 5590 5589 5588 5587 5586 5585 5583 5582 5581 5580 5579 5578 5577 5576 5574 5573 5572 5571 5570
5588 5587 5588 5593 5592 5590 5590 5589 5590 5588 5588 5587 5586 5586 5587 5585 5584 5583 5582 5581 5580 5579 5579 5578 5577 5576 5575 5574 5573 5572 5570 5569 5568 5567 5566 5564 5563 5562 5561 5560 5559 5558 5557 5555
5576 5574 5575 5579 5578 5577 5578 5578 5576 5575 5574 5573 5573 5572 5572 5571 5570 5569 5568 5567 5566 5565 5565 5564 5563 5562 5561 5560 5559 5557 5556 5554 5553 5552 5551 5550 5549 5548 5547 5546 5545 5544 5543 5542
5564 5563 5567 5566 5565 5565 5564 5563 5562 5561 5561 5560 5559 5558 5558 5557 5556 5555 5554 5553 5552 5551 5551 5550 5549 5548 5547 5546 5545 5543 5542 5540 5539 5538 5536 5535 5535 5534 5533 5532 5531 5530 5529 5528
5553 5554 5553 5552 5551 5551 5550 5550 5549 5548 5548 5547 5546 5545 5544 5543 5542 5541 5540 5539 5538 5537 5537 5536 5535 5534 5533 5532 5530 5529 5528 5526 5525 5524 5523 5522 5521 5520 5519 5518 5517 5516 5515 5514
5539 5541 5540 5539 5538 5538 5537 5537 5536 5535 5534 5533 5532 5531 5530 5529 5528 5527 5526 5525 5524 5523 5523 5522 5521 5520 5519 5518 5516 5515 5514 5513 5511 5510 5509 5509 5508 5507 5506 5505 5504 5503 5502 5500
5526 5527 5527 5527 5526 5525 5524 5523 5523 5522 5520 5519 5518 5517 5515 5514 5513 5512 5511 5511 5510 5509 5508 5508 5507 5506 5505 5504 5503 5502 5501 5499 5498 5497 5496 5496 5495 5494 5493 5492 5491 5490 5489 5487
5514 5515 5514 5514 5513 5512 5511 5511 5510 5508 5507 5506 5504 5503 5501 5500 5499 5498 5497 5496 5496 5495 5495 5494 5493 5493 5492 5490 5489 5488 5487 5486 5485 5484 5483 5483 5482 5482 5481 5480 5479 5477 5476 5475
5501 5501 5501 5501 5500 5499 5498 5497 5496 5495 5494 5493 5491 5489 5488 5487 5486 5485 5483 5483 5482 5481 5481 5480 5480 5479 5478 5477 5476 5475 5474 5473 5472 5471 5471 5470 5469 5469 5468 5468 5467 5465 5464 5463
5488 5488 5488 5488 5487 5486 5485 5484 5483 5482 5481 5479 5478 5477 5475 5474 5473 5471 5470 5469 5468 5468 5468 5467 5467 5466 5465 5464 5463 5462 5461 5461 5460 5459 5458 5457 5457 5456 5456 5455 5455 5454 5453 5451
5476 5476 5476 5475 5474 5473 5472 5471 5470 5470 5468 5467 5466 5464 5463 5461 5460 5458 5457 5456 5455 5455 5455 5454 5454 5454 5452 5451 5450 5450 5449 5448 5447 5447 5446 5445 5445 5444 5443 5443 5442 5441 5441 5440
5464 5464 5463 5462 5462 5461 5460 5459 5458 5457 5456 5455 5453 5452 5450 5449 5447 5446 5445 5444 5443 5443 5442 5442 5441 5441 5440 5439 5438 5438 5437 5436 5435 5435 5434 5434 5433 5432 5432 5431 5430 5429 5428 5428
5452 5452 5451 5450 5450 5449 5448 5447 5446 5445 5444 5443 5441 5440 5439 5437 5436 5434 5433 5432 5431 5431 5430 5429 5429 5428 5428 5427 5426 5426 5425 5424 5424 5423 5423 5422 5421 5421 5420 5419 5419 5418 5417 5417
5441 5440 5440 5439 5439 5438 5437 5436 5435 5434 5432 5431 5430 5429 5427 5426 5424 5423 5421 5420 5420 5420 5419 5417 5417 5416 5416 5416 5415 5414 5413 5413 5412 5412 5411 5411 5410 5410 5409 5408 5408 5407 5407 5406
5431 5430 5430 5429 5428 5427 5426 5425 5424 5423 5422 5420 5419 5418 5416 5414 5413 5411 5410 5410 5409 5409 5408 5407 5406 5405 5405 5404 5403 5403 5402 5402 5401 5401 5400 5400 5399 5399 5398 5398 5397 5397 5397 5397
5422 5421 5420 5419 5418 5417 5416 5415 5414 5413 5411 5410 5408 5407 5405 5404 5402 5401 5400 5399 5399 5397 5397 5396 5396 5395 5394 5393 5392 5392 5391 5391 5390 5390 5390 5390 5389 5389 5388 5388 5388 5387 5387 5387
5413 5412 5411 5410 5409 5408 5407 5405 5404 5403 5401 5399 5398 5396 5395 5393 5392 5391 5390 5389 5389 5387 5387 5386 5385 5385 5384 5383 5382 5381 5381 5380 5380 5380 5380 5380 5380 5379 5379 5378 5378 5378 5378 5378
5404 5403 5402 5401 5400 5399 5397 5396 5394 5393 5392 5390 5388 5387 5385 5384 5382 5381 5380 5379 5379 5378 5377 5376 5375 5375 5374 5373 5372 5372 5371 5371 5371 5371 5371 5371 5370 5370 5370 5369 5369 5369 5369 5369
5395 5394 5393 5391 5390 5389 5388 5387 5385 5384 5382 5381 5379 5377 5376 5374 5373 5371 5371 5370 5369 5368 5367 5366 5366 5365 5364 5363 5363 5362 5362 5362 5361 5361 5362 5362 5361 5361 5361 5361 5360 5360 5361 5361
5386 5385 5384 5382 5381 5380 5379 5378 5376 5374 5373 5372 5370 5368 5366 5365 5364 5362 5361 5360 5359 5359 5358 5357 5356 5356 5355 5354 5354 5353 5353 5353 5353 5353 5353 5353 5353 5353 5352 5352 5352 5352 5353 5353
5377 5376 5375 5373 5372 5371 5370 5368 5367 5366 5364 5363 5361 5360 5358 5356 5355 5354 5352 5351 5351 5350 5349 5348 5348 5347 5346 5346 5345 5345 5344 5344 5344 5344 5344 5344 5344 5344 5344 5344 5344 5345 5345 5346
5368 5367 5365 5364 5363 5362 5360 5359 5358 5357 5356 5354 5353 5351 5350 5348 5346 5345 5344 5343 5342 5342 5341 5340 5339 5339 5338 5337 5337 5337 5336 5336 5336 5336 5336 5336 5337 5337 5337 5337 5337 5338 5338 5339
5358 5357 5356 5355 5354 5353 5352 5351 5350 5349 5347 5346 5345 5344 5342 5340 5339 5338 5337 5336 5335 5334 5334 5333 5332 5331 5331 5330 5329 5329 5329 5329 5329 5329 5329 5329 5329 5330 5330 5330 5331 5332 5332 5333